STARLINK-32467, 61713

Orbit data source: Space-Track

STARLINK-32467, 61713 is a payload satellite owned by SpaceX/Seattle (US) in LEO that was launched on Wed, 30 Oct 2024 UTC via an FALCON 9 launch vehicle from the Air Force Eastern Test Range (AFETR). Payload-class satellites include a variety of spacecraft equipped with specific instruments for various scientific and technological missions. These include communications satellites like Starlink; space stations such as the ISS; scientific satellites like the Hubble; Earth observation satellites from companies like Planet Labs, Umbra, and HawkEye 360; GPS; miniature CubeSats for education and research; and military/defense satellites.

Loading next visibility...
Identifier
61713, 2024-196G
Orbit
LEO
Last TLE update
21 hours ago
Origin
Manufacturer
SpaceX/Seattle
Mission
Operational Commercial Communications
Bus & Motor
STARLINK V2M, Unknown motor
Mass
730 kg wet, ~700 kg dry
Launch date (UTC)
2024-10-30 (6 months ago)
Launch vehicle
FALCON 9
Launch site
Air Force Eastern Test Range (AFETR)
Object type
Payload
Rocket body
Debris
Shape & HBR
Box + 2 Pan, 29 m
Radar Cross Section
36.964 m², Large (>1 m²)

Expand to show TLE details & history

TLE from 21 hours ago
0 STARLINK-32467
1 61713U 24196G   25109.15226510  .00001566  00000-0  65023-4 0  9997
2 61713  53.1606 169.1310 0001268  95.3918 264.7227 15.30177358 27249
Epoch: 2025-04-19T03:39Z
Definitive object data (Epoch: 2025-04-19T03:39:15.704Z)
Latitude
-0.00006°
Longitude
-93.18404°
Altitude
476.262 km
Speed
7.629 km/s
True Right ascension
11h 16m 31s
True Declination
0° 00' 00"
Sunlit
Object was in full shadow at TLE epoch
Visualization TLE readout
Latitude
-9.43361°
Longitude
89.82034°
Altitude
477.929 km
Speed
7.627 km/s
Apparent Right ascension
21h 56m 10s
Apparent Declination
-26° 38' 36"
Sunlit
Object is in daylight
Visualization observer readout
Local Sidereal Time
07:45:00
Azimuth
285.935° WNW
Elevation
-59.775°
Doppler factor
1
Orbital elements
Apogee altitude
476.408 km
Perigee altitude
474.67 km
Semi-major axis
6,853.676 km
Eccentricity
0.0001268
Inclination
53.1606°
RAAN
169.131°
Arg. of periapsis
95.3918°
True anomaly
264.70823°
Mean anomaly
264.7227°
Eccentric anomaly
264.71547°
Mean motion
3.82523 °/min
BSTAR
0.000065023
Orbital period
94.11 mins
Loading maneuver chart data...
Loading SW <> Apogee altitude chart data...
Loading historical data...
Loading historical data...
Loading historical data...
Loading historical data...
Loading historical data...
Loading historical data...
Loading historical data...

STARLINK-32467 Visibility forecast

Observer location: undefined°, undefined°

Span
Click to sort rows by Start time (UTC) header in descending order
Start Az.
Max El. time (UTC)
Max El. Az.
Max El.
End time (UTC)
End Az.
6 mins2025-04-20 06:29:00.032Z225.222° WSW2025-04-20 06:32:00.032Z101.208° ESE44.541°2025-04-20 06:35:00.032Z52.008° ENE
5 mins2025-04-20 13:05:00.032Z320.547° NNW2025-04-20 13:07:00.032Z45.281° ENE42.735°2025-04-20 13:10:00.032Z120.589° SE
|